Lexington Weather

Lexington, Massachusetts, USA

44°F
4/22/2024 8:48am 
  • Lexington Conditions: Clear
  • Temperature: 43.7°F / 6.5°CWarmer 4.0°F than last hour.
  • Dew Point: 27.7°FDecreased 1.2°Fsince last hour.
  • Relative Humidity: 53%Decreased 12.0% since last hour.
  • Wind: Calm, 10-min avg: Calm, gust: None
  • Barometer: 29.96 in Steady
  • Visibility: 10 miles
  • Rain Today: 0.00 in
  •   

Regional Weather Roundup
for Boston, MA

        
000
ASUS41 KBOX 220210
RWRBOX

REGIONAL WEATHER ROUNDUP
NATIONAL WEATHER SERVICE BOSTON/NORTON MA
1000 PM EDT SUN APR 21 2024

NOTE:  "FAIR" INDICATES FEW OR NO CLOUDS BELOW 12,000 FEET WITH NO 
SIGNIFICANT WEATHER AND/OR OBSTRUCTIONS TO VISIBILITY.

MAZALL-220300-
EASTERN MASSACHUSETTS
  
CITY           SKY/WX    TMP DP  RH WIND       PRES   REMARKS
BOSTON         MOCLDY    47  24  40 W9        29.90R                  
BEVERLY        MOCLDY    43  24  47 W6        29.88S                  
LAWRENCE       PTCLDY    44  23  43 W7        29.90S                  
BEDFORD        PTCLDY    43  25  49 W5        29.89R                  
NORWOOD        MOCLDY    47  25  42 W6        29.90S                  
MARSHFIELD     MOCLDY    41  28  60 CALM      29.89S                  
PLYMOUTH       MOCLDY    44  26  49 W3        29.89R                  
TAUNTON        MOCLDY    41  29  62 SW3       29.90S                  
NEW BEDFORD    MOCLDY    43  31  62 CALM      29.91R                  
$$

MAZALL-220300-
CAPE COD AND THE ISLANDS
  
CITY           SKY/WX    TMP DP  RH WIND       PRES   REMARKS
FALMOUTH       CLEAR     43  34  70 NW6       29.89S                  
HYANNIS        CLOUDY    43  34  70 W3        29.89R                  
CHATHAM        CLOUDY    44  35  70 CALM      29.90R                  
PROVINCETOWN   MOCLDY    45  37  73 W7        29.90R                  
NANTUCKET      CLOUDY    45  38  76 W9        29.90S                  
MARTHAS VNYRD  CLOUDY    41  36  82 CALM      29.91R                  
$$
 
MAZALL-220300-
CENTRAL AND WESTERN MASSACHUSETTS
  
CITY           SKY/WX    TMP DP  RH WIND       PRES   REMARKS
WORCESTER      PTCLDY    42  21  43 W9        29.89R                  
FITCHBURG      PTCLDY    42  24  49 W3        29.91R                  
ORANGE         CLEAR     41  24  51 W5        29.92R                  
SPRINGFIELD    CLEAR     45  25  45 NW12      29.90R                  
WESTFIELD      CLEAR     43  25  49 VRB6      29.93R                  
NORTH ADAMS    MOCLDY    44  25  47 SW12G21   29.93R                  
PITTSFIELD     PTCLDY    39  25  57 W8        29.91R                  
$$
 
RIZALL-220300-
RHODE ISLAND
  
CITY           SKY/WX    TMP DP  RH WIND       PRES   REMARKS
PROVIDENCE     MOCLDY    45  26  47 NW5       29.92R                  
NEWPORT        MOCLDY    44  28  53 W5        29.91R                  
BLOCK ISLAND   MOCLDY    44  30  57 W5        29.94R                  
SMITHFIELD     MOCLDY    43  24  47 W6        29.91R                  
WESTERLY       MOCLDY    44  30  57 CALM      29.93R                  
$$
 
CTZALL-220300-
CONNECTICUT
  
CITY           SKY/WX    TMP DP  RH WIND       PRES   REMARKS
BRADLEY INTL   MOCLDY    44  25  47 NW7       29.94R                  
HARTFORD       PTCLDY    47  24  40 NW3       29.94R                  
PLAINVILLE     FAIR      41  28  60 CALM      29.94R                  
BRIDGEPORT     MOCLDY    47  26  44 W6        29.95R                  
DANBURY        PTCLDY    46  23  40 W6        29.96R                  
GROTON         MOCLDY    44  31  60 W3        29.93R                  
NEW HAVEN      MOCLDY    49  29  46 NW3       29.94R                  
CHESTER        MOCLDY    43  23  45 CALM      29.93R                  
MERIDEN        PTCLDY    40  30  67 CALM      29.95R                  
WILLIMANTIC    MOCLDY    43  26  51 W5        29.93R                  
OXFORD         PTCLDY    43  22  43 NW6       29.94R                  
$$

MEZ002-015-021-024-NHZ003-005-008-011-012-014-VTZ005-008-220300-
NORTHERN NEW ENGLAND
  
CITY           SKY/WX    TMP DP  RH WIND       PRES   REMARKS
PORTLAND ME    PTCLDY    43  25  49 W8        29.85R                  
BANGOR ME      MOCLDY    45  27  49 W3        29.79R                  
CONCORD NH     CLEAR     41  23  48 W5        29.87S                  
MANCHESTER NH  PTCLDY    45  23  42 W5        29.87S                  
NASHUA NH      CLEAR     40  27  59 CALM      29.90R                  
PORTSMOUTH NH  MOCLDY    45  24  43 W7        29.86S                  
JAFFREY NH     CLEAR     39  24  55 CALM      29.88R                  
KEENE NH       CLEAR     36  29  75 SW3       29.90S                  
BURLINGTON VT  CLOUDY    45  25  45 W9        29.87R                  
MT. WASHINGTON SNOWSHWR  16  16 100 W56G62      N/A  VSB 1/16WCI -10  
$$

NYZ052-076-220300-
EASTERN NEW YORK
  
CITY           SKY/WX    TMP DP  RH WIND       PRES   REMARKS
ALBANY         PTCLDY    41  26  55 SW3       29.97R                  
NEW YORK CITY  MOCLDY    50  25  37 NW8       29.96R                  
$$
 
ANZALL-220300-
MARINE OBSERVATIONS
  
STATION/POSITION TIME  TEMP    WIND        PRES    VSBY  WAVE
                       AIR SEA DIR/SP/G                  HT/PER
                 (UTC) (F)     (DEG/KT/KT) (MB)    (MI)  (FT/S)
BOSTON BUOY      0150   47     290/ 12/ 16 1011.6S         2/ 3
BUZZARDS BAY     0100   47     300/ 10/ 11 1013.2R
NANTUCKET SOUND  0150   48 48  270/ 10/ 10 1012.1R         2/ 3
MASS BAY-STELLWA 0004   47 46  280/ 12/ 14 1011.2R  1 7/8  2/ 6
ISLE OF SHOALS   0100   47     270/ 14/ 14 1010.8R
S OF BLOCK IS    0156      44                N/A           3/ 5
$$

......................KEY.........................
  SKY/WX - SKY CONDITION/PRESENT WEATHER
  TMP    - TEMPERATURE IN FAHRENHEIT
  DWPT   - DEWPOINT IN FAHRENHEIT
  RH     - RELATIVE HUMIDITY IN PERCENT
  WIND   - DIRECTION AND SPEED IN MPH
  PRES   - MEAN SEA LEVEL PRESSURE IN INCHES OF HG
  WCI    - WIND CHILL INDEX
  VSB    - VISIBILITY IN MILES
  HX     - HEAT INDEX
  TC     - TEMPERATURE IN CELSIUS
  VRB    - VARIABLE WIND DIRECTION
  N/A    - NOT AVAILABLE
  
      

Other recent Regional Weather Roundups

Mon Apr 22, 8:10am EDT

Mon Apr 22, 7:10am EDT

Mon Apr 22, 6:10am EDT

Mon Apr 22, 5:10am EDT

Mon Apr 22, 4:10am EDT

Mon Apr 22, 3:10am EDT

Mon Apr 22, 2:10am EDT

Mon Apr 22, 1:10am EDT

Mon Apr 22, 12:10am EDT

Sun Apr 21, 11:10pm EDT

Sun Apr 21, 9:10pm EDT

Sun Apr 21, 8:10pm EDT

Sun Apr 21, 7:10pm EDT

Sun Apr 21, 6:10pm EDT

Sun Apr 21, 5:10pm EDT

Sun Apr 21, 4:10pm EDT

Sun Apr 21, 3:10pm EDT

Sun Apr 21, 2:10pm EDT

Sun Apr 21, 1:10pm EDT

Sun Apr 21, 12:10pm EDT

Sun Apr 21, 11:10am EDT

Sun Apr 21, 10:10am EDT

Sun Apr 21, 9:10am EDT

Sun Apr 21, 8:10am EDT

Sun Apr 21, 7:10am EDT

Sun Apr 21, 6:10am EDT

Sun Apr 21, 5:10am EDT

Sun Apr 21, 4:10am EDT

Sun Apr 21, 3:10am EDT

Sun Apr 21, 2:10am EDT

Sun Apr 21, 1:10am EDT

Sun Apr 21, 12:10am EDT

Sat Apr 20, 11:10pm EDT

Sat Apr 20, 10:10pm EDT

Sat Apr 20, 9:10pm EDT

Sat Apr 20, 8:10pm EDT

Sat Apr 20, 7:10pm EDT

Sat Apr 20, 6:10pm EDT

Sat Apr 20, 5:10pm EDT

Sat Apr 20, 4:10pm EDT

Sat Apr 20, 3:10pm EDT

Sat Apr 20, 2:10pm EDT

Sat Apr 20, 1:10pm EDT

Sat Apr 20, 12:10pm EDT

Sat Apr 20, 11:10am EDT

Sat Apr 20, 10:10am EDT

Sat Apr 20, 9:10am EDT

Sat Apr 20, 8:10am EDT

Sat Apr 20, 7:10am EDT

Sat Apr 20, 6:10am EDT

Sat Apr 20, 5:10am EDT

Sat Apr 20, 4:10am EDT

Sat Apr 20, 3:10am EDT

Sat Apr 20, 2:10am EDT

Sat Apr 20, 1:10am EDT

Sat Apr 20, 12:10am EDT

Fri Apr 19, 11:10pm EDT

Fri Apr 19, 10:10pm EDT

Fri Apr 19, 9:10pm EDT

Fri Apr 19, 8:10pm EDT

Fri Apr 19, 7:10pm EDT

Fri Apr 19, 6:10pm EDT

Fri Apr 19, 5:10pm EDT

Fri Apr 19, 4:10pm EDT

Fri Apr 19, 3:10pm EDT

Fri Apr 19, 2:10pm EDT

Fri Apr 19, 1:10pm EDT

Fri Apr 19, 12:10pm EDT

Fri Apr 19, 11:10am EDT

Fri Apr 19, 10:10am EDT

Fri Apr 19, 9:10am EDT

Fri Apr 19, 8:10am EDT

Fri Apr 19, 7:10am EDT

Fri Apr 19, 6:10am EDT

Fri Apr 19, 5:10am EDT

Fri Apr 19, 4:10am EDT

Fri Apr 19, 3:10am EDT

Fri Apr 19, 2:10am EDT

Fri Apr 19, 1:10am EDT

Fri Apr 19, 12:10am EDT

Thu Apr 18, 11:10pm EDT

Thu Apr 18, 10:10pm EDT

Thu Apr 18, 9:10pm EDT

Thu Apr 18, 8:10pm EDT

Thu Apr 18, 7:10pm EDT

Thu Apr 18, 6:10pm EDT

Thu Apr 18, 5:10pm EDT

Thu Apr 18, 4:10pm EDT

Thu Apr 18, 3:10pm EDT

Thu Apr 18, 2:10pm EDT

Thu Apr 18, 1:10pm EDT

Thu Apr 18, 12:10pm EDT

Thu Apr 18, 11:10am EDT

Thu Apr 18, 10:10am EDT

Thu Apr 18, 9:10am EDT

Thu Apr 18, 8:10am EDT

Thu Apr 18, 7:10am EDT

Thu Apr 18, 6:10am EDT

Thu Apr 18, 5:10am EDT

Thu Apr 18, 4:10am EDT

Thu Apr 18, 3:10am EDT

Thu Apr 18, 2:10am EDT

Thu Apr 18, 1:10am EDT

Thu Apr 18, 12:10am EDT

Wed Apr 17, 11:10pm EDT

Wed Apr 17, 10:10pm EDT

Wed Apr 17, 9:10pm EDT

Wed Apr 17, 8:10pm EDT

Wed Apr 17, 7:10pm EDT

Wed Apr 17, 6:10pm EDT

Wed Apr 17, 5:10pm EDT

Wed Apr 17, 4:10pm EDT

Wed Apr 17, 3:10pm EDT

Wed Apr 17, 2:10pm EDT

Wed Apr 17, 1:10pm EDT

Wed Apr 17, 12:10pm EDT

Wed Apr 17, 11:10am EDT

Wed Apr 17, 10:10am EDT

Wed Apr 17, 9:10am EDT

Wed Apr 17, 8:10am EDT

Wed Apr 17, 7:10am EDT

Wed Apr 17, 6:10am EDT

Wed Apr 17, 5:10am EDT

Wed Apr 17, 4:10am EDT

Wed Apr 17, 3:10am EDT

Wed Apr 17, 2:10am EDT

Wed Apr 17, 1:10am EDT

Wed Apr 17, 12:10am EDT

Tue Apr 16, 11:10pm EDT

Tue Apr 16, 10:10pm EDT

Tue Apr 16, 9:10pm EDT

Tue Apr 16, 8:10pm EDT

Tue Apr 16, 7:10pm EDT

Tue Apr 16, 6:10pm EDT

Tue Apr 16, 5:10pm EDT

Tue Apr 16, 4:10pm EDT

Tue Apr 16, 3:10pm EDT

Tue Apr 16, 2:10pm EDT

Tue Apr 16, 1:10pm EDT

Tue Apr 16, 12:10pm EDT

Tue Apr 16, 11:10am EDT

Tue Apr 16, 10:10am EDT

Tue Apr 16, 9:10am EDT

Tue Apr 16, 8:10am EDT

Tue Apr 16, 7:10am EDT

Tue Apr 16, 6:10am EDT

Tue Apr 16, 5:10am EDT

Tue Apr 16, 4:10am EDT

Tue Apr 16, 3:10am EDT

Tue Apr 16, 2:10am EDT

Tue Apr 16, 1:10am EDT

Tue Apr 16, 12:10am EDT

Mon Apr 15, 11:10pm EDT

Mon Apr 15, 10:10pm EDT

Mon Apr 15, 9:10pm EDT

Mon Apr 15, 8:10pm EDT

Mon Apr 15, 7:10pm EDT

Mon Apr 15, 6:10pm EDT

Mon Apr 15, 5:10pm EDT

Mon Apr 15, 4:10pm EDT

Mon Apr 15, 3:10pm EDT

Mon Apr 15, 2:10pm EDT

Mon Apr 15, 1:10pm EDT

Mon Apr 15, 12:10pm EDT

Mon Apr 15, 11:10am EDT

Mon Apr 15, 10:10am EDT

Mon Apr 15, 9:10am EDT